This is the latest recevied weather packets stored in our database for station/object KB1RMA-13. If no packets are shown the sender has not sent any weather packets the latest 10 day(s).
| Time | Temp. | Humidity | Pressure | Rain* | Wind** | Luminosity | Snow |
|---|---|---|---|---|---|---|---|
| 1777633662 | 7.78° C | 80% | 1009.6 hPa | 0 mm | - | 134 W/m² | - |
| 1777633360 | 7.78° C | 81% | 1009.7 hPa | 0 mm | - | 124 W/m² | - |
| 1777633057 | 7.78° C | 81% | 1009.7 hPa | 0 mm | - | 113 W/m² | - |
| 1777632753 | 7.78° C | 81% | 1009.8 hPa | 0 mm | - | 98 W/m² | - |
| 1777632449 | 7.78° C | 82% | 1009.6 hPa | 0 mm | - | 86 W/m² | - |
| 1777632147 | 7.22° C | 83% | 1009.7 hPa | 0 mm | - | 76 W/m² | - |
| 1777631844 | 7.22° C | 84% | 1009.8 hPa | 0 mm | - | 66 W/m² | - |
| 1777631543 | 7.22° C | 84% | 1009.7 hPa | 0 mm | - | 37 W/m² | - |
| 1777631239 | 6.67° C | 85% | 1009.4 hPa | 0 mm | - | 52 W/m² | - |
| 1777630936 | 6.67° C | 86% | 1009.3 hPa | 0 mm | - | 32 W/m² | - |
| 1777630632 | 6.67° C | 86% | 1009.3 hPa | 0 mm | - | 26 W/m² | - |
| 1777630329 | 6.67° C | 86% | 1009.3 hPa | 0 mm | - | 24 W/m² | - |
| 1777630027 | 6.67° C | 86% | 1009.1 hPa | 0 mm | - | 19 W/m² | - |
| 1777629724 | 7.22° C | 86% | 1009.4 hPa | 0 mm | - | 15 W/m² | - |
| 1777629421 | 7.22° C | 86% | 1009.4 hPa | 0 mm | - | 11 W/m² | - |
| 1777629116 | 7.22° C | 86% | 1009.4 hPa | 0 mm | - | 9 W/m² | - |
| 1777628813 | 7.22° C | 86% | 1009.3 hPa | 0 mm | - | 6 W/m² | - |
| 1777628509 | 7.22° C | 86% | 1009.1 hPa | 0 mm | - | 4 W/m² | - |
| 1777628206 | 7.22° C | 86% | 1009.2 hPa | 0 mm | - | 2 W/m² | - |
| 1777627902 | 7.22° C | 86% | 1008.9 hPa | 0 mm | - | 1 W/m² | - |
| 1777627595 | 7.22° C | 86% | 1009.1 hPa | 0 mm | - | 0 W/m² | - |
| 1777627295 | 7.78° C | 86% | 1008.9 hPa | 0 mm | - | 0 W/m² | - |
| 1777626993 | 7.78° C | 86% | 1009 hPa | 0 mm | - | 0 W/m² | - |
| 1777626689 | 7.78° C | 86% | 1008.8 hPa | 0 mm | - | 0 W/m² | - |
| 1777626385 | 7.78° C | 87% | 1008.8 hPa | 0 mm | - | 0 W/m² | - |
* Rain latest hour (hover to see other rain measurements)
** Current wind speed in m/s (hover to see current wind gust speed)